Time,TemperatureF,DewpointF,PressureIn,WindDirection,WindDirectionDegrees,WindSpeedMPH,WindSpeedGustMPH,Humidity,HourlyPrecipIn,Conditions,Clouds,dailyrainin,SoftwareType,DateUTC
2013-03-08 00:02:00,39.0,27.0,-100.00,NW,308,9.0,-999.0,61,-99.99,,,-99.99,,2013-03-08 05:02:00,
2013-03-08 00:12:00,39.0,27.0,-100.00,NW,308,9.0,-999.0,61,-99.99,,,-99.99,,2013-03-08 05:12:00,
2013-03-08 00:22:00,39.0,27.0,-100.00,NW,306,11.0,-999.0,61,-99.99,,,-99.99,,2013-03-08 05:22:00,
2013-03-08 00:33:00,39.0,27.0,-100.00,NW,308,11.0,-999.0,61,-99.99,,,-99.99,,2013-03-08 05:33:00,
2013-03-08 00:42:00,39.0,27.0,-100.00,NW,308,11.0,-999.0,61,-99.99,,,-99.99,,2013-03-08 05:42:00,
2013-03-08 00:52:00,39.0,27.0,-100.00,NW,311,8.0,-999.0,61,-99.99,,,-99.99,,2013-03-08 05:52:00,
2013-03-08 01:01:00,38.0,26.0,-100.00,NW,311,9.0,-999.0,61,-99.99,,,-99.99,,2013-03-08 06:01:00,
2013-03-08 01:11:00,38.0,26.0,-100.00,NW,311,9.0,-999.0,61,-99.99,,,-99.99,,2013-03-08 06:11:00,
2013-03-08 01:22:00,38.0,26.0,-100.00,NW,313,10.0,-999.0,61,-99.99,,,-99.99,,2013-03-08 06:22:00,
2013-03-08 01:32:00,38.0,26.0,-100.00,NW,312,9.0,-999.0,61,-99.99,,,-99.99,,2013-03-08 06:32:00,
2013-03-08 01:42:00,38.0,26.0,-100.00,NW,312,9.0,-999.0,61,-99.99,,,-99.99,,2013-03-08 06:42:00,
2013-03-08 01:52:00,38.0,26.0,-100.00,NW,311,9.0,-999.0,61,-99.99,,,-99.99,,2013-03-08 06:52:00,
2013-03-08 02:01:00,38.0,26.0,-100.00,NW,310,10.0,-999.0,61,-99.99,,,-99.99,,2013-03-08 07:01:00,
2013-03-08 02:11:00,38.0,26.0,-100.00,NW,310,10.0,-999.0,61,-99.99,,,-99.99,,2013-03-08 07:11:00,
2013-03-08 02:22:00,38.0,25.0,-100.00,NW,310,10.0,-999.0,60,-99.99,,,-99.99,,2013-03-08 07:22:00,
2013-03-08 02:32:00,38.0,25.0,-100.00,NW,310,9.0,-999.0,60,-99.99,,,-99.99,,2013-03-08 07:32:00,
2013-03-08 02:42:00,38.0,25.0,-100.00,NW,310,9.0,-999.0,60,-99.99,,,-99.99,,2013-03-08 07:42:00,
2013-03-08 02:52:00,38.0,25.0,-100.00,NW,311,8.0,-999.0,60,-99.99,,,-99.99,,2013-03-08 07:52:00,
2013-03-08 03:01:00,37.0,25.0,-100.00,NW,314,8.0,-999.0,60,-99.99,,,-99.99,,2013-03-08 08:01:00,
2013-03-08 03:11:00,37.0,25.0,-100.00,NW,314,8.0,-999.0,60,-99.99,,,-99.99,,2013-03-08 08:11:00,
2013-03-08 03:22:00,37.0,25.0,-100.00,NW,312,8.0,-999.0,60,-99.99,,,-99.99,,2013-03-08 08:22:00,
2013-03-08 03:32:00,37.0,25.0,-100.00,NW,316,9.0,-999.0,60,-99.99,,,-99.99,,2013-03-08 08:32:00,
2013-03-08 03:42:00,37.0,25.0,-100.00,NW,316,9.0,-999.0,60,-99.99,,,-99.99,,2013-03-08 08:42:00,
2013-03-08 03:52:00,37.0,25.0,-100.00,NW,318,9.0,-999.0,60,-99.99,,,-99.99,,2013-03-08 08:52:00,
2013-03-08 04:03:00,37.0,25.0,-100.00,NW,319,9.0,-999.0,60,-99.99,,,-99.99,,2013-03-08 09:03:00,
2013-03-08 04:11:00,37.0,25.0,-100.00,NW,319,9.0,-999.0,60,-99.99,,,-99.99,,2013-03-08 09:11:00,
2013-03-08 04:22:00,37.0,25.0,-100.00,NW,312,7.0,-999.0,60,-99.99,,,-99.99,,2013-03-08 09:22:00,
2013-03-08 04:32:00,37.0,25.0,-100.00,NW,308,8.0,-999.0,61,-99.99,,,-99.99,,2013-03-08 09:32:00,
2013-03-08 04:42:00,37.0,25.0,-100.00,NW,308,8.0,-999.0,61,-99.99,,,-99.99,,2013-03-08 09:42:00,
2013-03-08 04:52:00,37.0,26.0,-100.00,NW,310,8.0,-999.0,63,-99.99,,,-99.99,,2013-03-08 09:52:00,
2013-03-08 05:01:00,37.0,26.0,-100.00,NW,312,9.0,-999.0,64,-99.99,,,-99.99,,2013-03-08 10:01:00,
2013-03-08 05:11:00,37.0,26.0,-100.00,NW,312,9.0,-999.0,64,-99.99,,,-99.99,,2013-03-08 10:11:00,
2013-03-08 05:21:00,37.0,26.0,-100.00,NW,309,10.0,-999.0,64,-99.99,,,-99.99,,2013-03-08 10:21:00,
2013-03-08 05:32:00,37.0,26.0,-100.00,NW,308,9.0,-999.0,63,-99.99,,,-99.99,,2013-03-08 10:32:00,
2013-03-08 05:42:00,37.0,26.0,-100.00,NW,308,9.0,-999.0,63,-99.99,,,-99.99,,2013-03-08 10:42:00,
2013-03-08 05:52:00,37.0,25.0,-100.00,NW,309,11.0,-999.0,63,-99.99,,,-99.99,,2013-03-08 10:52:00,
2013-03-08 06:01:00,37.0,25.0,-100.00,NW,309,9.0,-999.0,63,-99.99,,,-99.99,,2013-03-08 11:01:00,
2013-03-08 06:11:00,37.0,25.0,-100.00,NW,309,9.0,-999.0,63,-99.99,,,-99.99,,2013-03-08 11:11:00,
2013-03-08 06:21:00,37.0,25.0,-100.00,NW,308,10.0,-999.0,62,-99.99,,,-99.99,,2013-03-08 11:21:00,
2013-03-08 06:32:00,37.0,25.0,-100.00,NW,307,8.0,-999.0,61,-99.99,,,-99.99,,2013-03-08 11:32:00,
2013-03-08 06:42:00,37.0,25.0,-100.00,NW,307,8.0,-999.0,61,-99.99,,,-99.99,,2013-03-08 11:42:00,
2013-03-08 06:52:00,37.0,25.0,-100.00,NW,315,9.0,-999.0,60,-99.99,,,-99.99,,2013-03-08 11:52:00,
2013-03-08 07:02:00,37.0,24.0,-100.00,NW,322,12.0,-999.0,59,-99.99,,,-99.99,,2013-03-08 12:02:00,
2013-03-08 07:11:00,37.0,24.0,-100.00,NW,322,12.0,-999.0,59,-99.99,,,-99.99,,2013-03-08 12:11:00,
2013-03-08 07:22:00,37.0,24.0,-100.00,NNW,330,13.0,-999.0,58,-99.99,,,-99.99,,2013-03-08 12:22:00,
2013-03-08 07:32:00,37.0,25.0,-100.00,NNW,335,12.0,-999.0,60,-99.99,,,-99.99,,2013-03-08 12:32:00,
2013-03-08 07:43:00,37.0,25.0,-100.00,NNW,335,12.0,-999.0,60,-99.99,,,-99.99,,2013-03-08 12:43:00,
2013-03-08 07:53:00,37.0,25.0,-100.00,NNW,335,14.0,-999.0,61,-99.99,,,-99.99,,2013-03-08 12:53:00,
2013-03-08 08:01:00,37.0,25.0,-100.00,NNW,332,11.0,-999.0,60,-99.99,,,-99.99,,2013-03-08 13:01:00,
2013-03-08 08:11:00,37.0,25.0,-100.00,NNW,332,11.0,-999.0,60,-99.99,,,-99.99,,2013-03-08 13:11:00,
2013-03-08 08:22:00,37.0,25.0,-100.00,NNW,337,13.0,-999.0,59,-99.99,,,-99.99,,2013-03-08 13:22:00,
2013-03-08 08:32:00,37.0,24.0,-100.00,NNW,337,16.0,-999.0,59,-99.99,,,-99.99,,2013-03-08 13:32:00,
2013-03-08 08:42:00,37.0,24.0,-100.00,NNW,337,16.0,-999.0,59,-99.99,,,-99.99,,2013-03-08 13:42:00,
2013-03-08 08:52:00,37.0,24.0,-100.00,NNW,334,17.0,-999.0,58,-99.99,,,-99.99,,2013-03-08 13:52:00,
2013-03-08 09:02:00,37.0,25.0,-100.00,NNW,340,17.0,-999.0,59,-99.99,,,-99.99,,2013-03-08 14:02:00,
2013-03-08 09:11:00,37.0,25.0,-100.00,NNW,340,17.0,-999.0,59,-99.99,,,-99.99,,2013-03-08 14:11:00,
2013-03-08 09:22:00,37.0,24.0,-100.00,NNW,334,18.0,-999.0,59,-99.99,,,-99.99,,2013-03-08 14:22:00,
2013-03-08 09:32:00,38.0,24.0,-100.00,NNW,329,18.0,-999.0,57,-99.99,,,-99.99,,2013-03-08 14:32:00,
2013-03-08 09:42:00,38.0,24.0,-100.00,NNW,329,18.0,-999.0,57,-99.99,,,-99.99,,2013-03-08 14:42:00,
2013-03-08 09:53:00,38.0,23.0,-100.00,NNW,335,22.0,-999.0,55,-99.99,,,-99.99,,2013-03-08 14:53:00,
2013-03-08 10:03:00,38.0,23.0,-100.00,NNW,336,19.0,-999.0,53,-99.99,,,-99.99,,2013-03-08 15:03:00,
2013-03-08 10:12:00,38.0,23.0,-100.00,NNW,336,19.0,-999.0,53,-99.99,,,-99.99,,2013-03-08 15:12:00,
2013-03-08 10:22:00,38.0,22.0,-100.00,NNW,339,20.0,-999.0,51,-99.99,,,-99.99,,2013-03-08 15:22:00,
2013-03-08 10:32:00,39.0,22.0,-100.00,NNW,327,16.0,-999.0,49,-99.99,,,-99.99,,2013-03-08 15:32:00,
2013-03-08 10:42:00,39.0,22.0,-100.00,NNW,327,16.0,-999.0,49,-99.99,,,-99.99,,2013-03-08 15:42:00,
2013-03-08 10:53:00,39.0,21.0,-100.00,NW,324,18.0,-999.0,47,-99.99,,,-99.99,,2013-03-08 15:53:00,
2013-03-08 11:01:00,40.0,20.0,-100.00,NW,323,18.0,-999.0,45,-99.99,,,-99.99,,2013-03-08 16:01:00,
2013-03-08 11:11:00,40.0,20.0,-100.00,NW,323,18.0,-999.0,45,-99.99,,,-99.99,,2013-03-08 16:11:00,
2013-03-08 11:22:00,40.0,20.0,-100.00,NW,326,19.0,-999.0,43,-99.99,,,-99.99,,2013-03-08 16:22:00,
2013-03-08 11:32:00,41.0,20.0,-100.00,NW,325,20.0,-999.0,42,-99.99,,,-99.99,,2013-03-08 16:32:00,
2013-03-08 11:42:00,41.0,20.0,-100.00,NW,325,20.0,-999.0,42,-99.99,,,-99.99,,2013-03-08 16:42:00,
2013-03-08 11:52:00,42.0,20.0,-100.00,NNW,332,19.0,-999.0,41,-99.99,,,-99.99,,2013-03-08 16:52:00,
2013-03-08 12:03:00,42.0,20.0,-100.00,NNW,339,19.0,-999.0,41,-99.99,,,-99.99,,2013-03-08 17:03:00,
2013-03-08 12:11:00,42.0,20.0,-100.00,NNW,339,19.0,-999.0,41,-99.99,,,-99.99,,2013-03-08 17:11:00,
2013-03-08 12:21:00,42.0,20.0,-100.00,NW,322,16.0,-999.0,41,-99.99,,,-99.99,,2013-03-08 17:21:00,
2013-03-08 12:32:00,43.0,21.0,-100.00,NNW,327,15.0,-999.0,41,-99.99,,,-99.99,,2013-03-08 17:32:00,
2013-03-08 12:42:00,43.0,21.0,-100.00,NNW,327,15.0,-999.0,41,-99.99,,,-99.99,,2013-03-08 17:42:00,
2013-03-08 12:52:00,42.0,21.0,-100.00,NW,316,19.0,-999.0,42,-99.99,,,-99.99,,2013-03-08 17:52:00,
2013-03-08 13:02:00,43.0,21.0,-100.00,NW,326,19.0,-999.0,41,-99.99,,,-99.99,,2013-03-08 18:02:00,
2013-03-08 13:12:00,43.0,21.0,-100.00,NW,326,19.0,-999.0,41,-99.99,,,-99.99,,2013-03-08 18:12:00,
2013-03-08 13:21:00,43.0,21.0,-100.00,NNW,327,18.0,-999.0,41,-99.99,,,-99.99,,2013-03-08 18:21:00,
2013-03-08 13:32:00,44.0,22.0,-100.00,NW,325,19.0,-999.0,41,-99.99,,,-99.99,,2013-03-08 18:32:00,
2013-03-08 13:42:00,44.0,22.0,-100.00,NW,325,19.0,-999.0,41,-99.99,,,-99.99,,2013-03-08 18:42:00,
2013-03-08 13:52:00,45.0,22.0,-100.00,NNW,333,18.0,-999.0,40,-99.99,,,-99.99,,2013-03-08 18:52:00,
2013-03-08 14:01:00,45.0,22.0,-100.00,NW,321,17.0,-999.0,39,-99.99,,,-99.99,,2013-03-08 19:01:00,
2013-03-08 14:11:00,45.0,22.0,-100.00,NW,321,17.0,-999.0,39,-99.99,,,-99.99,,2013-03-08 19:11:00,
2013-03-08 14:22:00,45.0,22.0,-100.00,NNW,330,17.0,-999.0,39,-99.99,,,-99.99,,2013-03-08 19:22:00,
2013-03-08 14:32:00,46.0,22.0,-100.00,NW,326,17.0,-999.0,39,-99.99,,,-99.99,,2013-03-08 19:32:00,
2013-03-08 14:42:00,46.0,22.0,-100.00,NW,326,17.0,-999.0,39,-99.99,,,-99.99,,2013-03-08 19:42:00,
2013-03-08 14:52:00,46.0,22.0,-100.00,NNW,332,15.0,-999.0,38,-99.99,,,-99.99,,2013-03-08 19:52:00,
2013-03-08 15:01:00,46.0,23.0,-100.00,NNW,336,15.0,-999.0,39,-99.99,,,-99.99,,2013-03-08 20:01:00,
2013-03-08 15:11:00,46.0,23.0,-100.00,NNW,336,15.0,-999.0,39,-99.99,,,-99.99,,2013-03-08 20:11:00,
2013-03-08 15:22:00,46.0,23.0,-100.00,NNW,344,17.0,-999.0,39,-99.99,,,-99.99,,2013-03-08 20:22:00,
2013-03-08 15:32:00,46.0,23.0,-100.00,NNW,333,17.0,-999.0,40,-99.99,,,-99.99,,2013-03-08 20:32:00,
2013-03-08 15:42:00,46.0,23.0,-100.00,NNW,333,17.0,-999.0,40,-99.99,,,-99.99,,2013-03-08 20:42:00,
2013-03-08 15:53:00,47.0,23.0,-100.00,NNW,327,16.0,-999.0,39,-99.99,,,-99.99,,2013-03-08 20:53:00,
2013-03-08 16:02:00,47.0,23.0,-100.00,NNW,341,17.0,-999.0,39,-99.99,,,-99.99,,2013-03-08 21:02:00,
2013-03-08 16:11:00,47.0,23.0,-100.00,NNW,341,17.0,-999.0,39,-99.99,,,-99.99,,2013-03-08 21:11:00,
2013-03-08 16:22:00,47.0,23.0,-100.00,NNW,343,15.0,-999.0,39,-99.99,,,-99.99,,2013-03-08 21:22:00,
2013-03-08 16:32:00,47.0,23.0,-100.00,NNW,341,18.0,-999.0,39,-99.99,,,-99.99,,2013-03-08 21:32:00,
2013-03-08 16:42:00,47.0,23.0,-100.00,NNW,341,18.0,-999.0,39,-99.99,,,-99.99,,2013-03-08 21:42:00,
2013-03-08 16:52:00,47.0,24.0,-100.00,NNW,332,16.0,-999.0,39,-99.99,,,-99.99,,2013-03-08 21:52:00,
2013-03-08 17:01:00,48.0,24.0,-100.00,NNW,334,14.0,-999.0,39,-99.99,,,-99.99,,2013-03-08 22:01:00,
2013-03-08 17:11:00,48.0,24.0,-100.00,NNW,334,14.0,-999.0,39,-99.99,,,-99.99,,2013-03-08 22:11:00,
2013-03-08 17:22:00,47.0,24.0,-100.00,NNW,345,18.0,-999.0,39,-99.99,,,-99.99,,2013-03-08 22:22:00,
2013-03-08 17:32:00,47.0,24.0,-100.00,North,352,19.0,-999.0,40,-99.99,,,-99.99,,2013-03-08 22:32:00,
2013-03-08 17:42:00,47.0,24.0,-100.00,North,352,19.0,-999.0,40,-99.99,,,-99.99,,2013-03-08 22:42:00,
2013-03-08 17:53:00,47.0,24.0,-100.00,NNW,345,15.0,-999.0,40,-99.99,,,-99.99,,2013-03-08 22:53:00,
2013-03-08 18:01:00,47.0,24.0,-100.00,NNW,347,16.0,-999.0,41,-99.99,,,-99.99,,2013-03-08 23:01:00,
2013-03-08 18:12:00,47.0,24.0,-100.00,NNW,347,16.0,-999.0,41,-99.99,,,-99.99,,2013-03-08 23:12:00,
2013-03-08 18:22:00,47.0,25.0,-100.00,NNW,347,15.0,-999.0,41,-99.99,,,-99.99,,2013-03-08 23:22:00,
2013-03-08 18:32:00,47.0,24.0,-100.00,NNW,341,15.0,-999.0,41,-99.99,,,-99.99,,2013-03-08 23:32:00,
2013-03-08 18:42:00,47.0,24.0,-100.00,NNW,341,15.0,-999.0,41,-99.99,,,-99.99,,2013-03-08 23:42:00,
2013-03-08 18:53:00,46.0,24.0,-100.00,NNW,343,14.0,-999.0,42,-99.99,,,-99.99,,2013-03-08 23:53:00,
2013-03-08 19:02:00,46.0,24.0,-100.00,NNW,346,15.0,-999.0,41,-99.99,,,-99.99,,2013-03-09 00:02:00,
2013-03-08 19:11:00,46.0,24.0,-100.00,NNW,346,15.0,-999.0,41,-99.99,,,-99.99,,2013-03-09 00:11:00,
2013-03-08 19:22:00,46.0,24.0,-100.00,NNW,340,16.0,-999.0,41,-99.99,,,-99.99,,2013-03-09 00:22:00,
2013-03-08 19:32:00,46.0,24.0,-100.00,NNW,336,14.0,-999.0,42,-99.99,,,-99.99,,2013-03-09 00:32:00,
2013-03-08 19:42:00,46.0,24.0,-100.00,NNW,336,14.0,-999.0,42,-99.99,,,-99.99,,2013-03-09 00:42:00,
2013-03-08 19:52:00,46.0,24.0,-100.00,NNW,339,14.0,-999.0,41,-99.99,,,-99.99,,2013-03-09 00:52:00,
2013-03-08 20:01:00,46.0,24.0,-100.00,NNW,337,14.0,-999.0,41,-99.99,,,-99.99,,2013-03-09 01:01:00,
2013-03-08 20:12:00,46.0,24.0,-100.00,NNW,337,14.0,-999.0,41,-99.99,,,-99.99,,2013-03-09 01:12:00,
2013-03-08 20:22:00,46.0,24.0,-100.00,NNW,338,12.0,-999.0,41,-99.99,,,-99.99,,2013-03-09 01:22:00,
2013-03-08 20:32:00,46.0,24.0,-100.00,NNW,337,13.0,-999.0,40,-99.99,,,-99.99,,2013-03-09 01:32:00,
2013-03-08 20:42:00,46.0,24.0,-100.00,NNW,337,13.0,-999.0,40,-99.99,,,-99.99,,2013-03-09 01:42:00,
2013-03-08 20:52:00,46.0,24.0,-100.00,NNW,335,12.0,-999.0,40,-99.99,,,-99.99,,2013-03-09 01:52:00,
2013-03-08 21:01:00,46.0,24.0,-100.00,NNW,334,12.0,-999.0,41,-99.99,,,-99.99,,2013-03-09 02:01:00,
2013-03-08 21:11:00,46.0,24.0,-100.00,NNW,334,12.0,-999.0,41,-99.99,,,-99.99,,2013-03-09 02:11:00,
2013-03-08 21:21:00,46.0,24.0,-100.00,NNW,332,12.0,-999.0,41,-99.99,,,-99.99,,2013-03-09 02:21:00,
2013-03-08 21:31:00,46.0,24.0,-100.00,NNW,331,11.0,-999.0,41,-99.99,,,-99.99,,2013-03-09 02:31:00,
2013-03-08 21:41:00,46.0,24.0,-100.00,NNW,331,11.0,-999.0,41,-99.99,,,-99.99,,2013-03-09 02:41:00,
2013-03-08 21:51:00,46.0,24.0,-100.00,NW,326,12.0,-999.0,42,-99.99,,,-99.99,,2013-03-09 02:51:00,
2013-03-08 22:01:00,46.0,24.0,-100.00,NNW,329,13.0,-999.0,42,-99.99,,,-99.99,,2013-03-09 03:01:00,
2013-03-08 22:11:00,46.0,24.0,-100.00,NNW,329,13.0,-999.0,42,-99.99,,,-99.99,,2013-03-09 03:11:00,
2013-03-08 22:22:00,46.0,24.0,-100.00,NW,322,11.0,-999.0,43,-99.99,,,-99.99,,2013-03-09 03:22:00,
2013-03-08 22:31:00,45.0,25.0,-100.00,NW,319,9.0,-999.0,44,-99.99,,,-99.99,,2013-03-09 03:31:00,
2013-03-08 22:41:00,45.0,25.0,-100.00,NW,319,9.0,-999.0,44,-99.99,,,-99.99,,2013-03-09 03:41:00,
2013-03-08 22:52:00,45.0,24.0,-100.00,NW,319,11.0,-999.0,44,-99.99,,,-99.99,,2013-03-09 03:52:00,
2013-03-08 23:01:00,44.0,24.0,-100.00,NW,325,10.0,-999.0,44,-99.99,,,-99.99,,2013-03-09 04:01:00,
2013-03-08 23:11:00,44.0,24.0,-100.00,NW,325,10.0,-999.0,44,-99.99,,,-99.99,,2013-03-09 04:11:00,
2013-03-08 23:22:00,44.0,24.0,-100.00,NNW,332,9.0,-999.0,44,-99.99,,,-99.99,,2013-03-09 04:22:00,
2013-03-08 23:32:00,44.0,23.0,-100.00,NNW,335,10.0,-999.0,44,-99.99,,,-99.99,,2013-03-09 04:32:00,
2013-03-08 23:42:00,44.0,23.0,-100.00,NNW,335,10.0,-999.0,44,-99.99,,,-99.99,,2013-03-09 04:42:00,
2013-03-08 23:52:00,44.0,23.0,-100.00,NNW,340,9.0,-999.0,43,-99.99,,,-99.99,,2013-03-09 04:52:00,